THORAD AGENA D DEB, 42527

Orbit data source: Space-Track

THORAD AGENA D DEB, 42527 is space debris in SSO originally from a launch on Wed, 08 Apr 1970 UTC launched from the Air Force Western Test Range (AFWTR). Debris objects in space refer to the collection of defunct objects orbiting the Earth. Examples of debris include non-operational satellites, rocket bodies, and fragments generated from explosions, collisions, or faulty payload assembly.

Loading next visibility...
Identifier
42527, 1970-025SH
Orbit
SSO
Country
Flag of USUS
Related business
Manufacturer
Unknown
Mission
Spacecraft
Bus & Motor
Unknown
Mass
Unknown
Launch date (UTC)
1970-04-08 (56 years ago)
Launch vehicle
Unknown
Launch site
Air Force Western Test Range (AFWTR)
Object type
Payload
Rocket body
Debris
Shape & HBR
Unknown shape, 0.1 m
Radar Cross Section
Small (<0.1 m²)

Expand to show TLE details & history
Last TLE update: 3 days ago

TLE from 3 days ago
0 THORAD AGENA D DEB
1 42527U 70025SH  26122.59955587  .00007396  00000-0  22256-2 0  9994
2 42527  99.1328  77.6155 0025465  88.6580 271.7524 14.42715930644831
Epoch: 2026-05-02T14:23Z
TLE epoch observation values (Epoch: 2026-05-02T14:23:21.627Z)
Latitude
-0.00007°
Longitude
1.26026°
Altitude
751.962 km
Speed
7.479 km/s
True Right ascension
05h 10m 27s
True Declination
0° 00' 00"
Sunlit
Object was in daylight at epoch
Visualization orbit readout
Latitude
Unknown
Longitude
Unknown
Altitude
Unknown
Speed
Unknown
Apparent Right ascension
Unknown
Apparent Declination
Unknown
Sunlit
N/A
Visualization observer readout
Local Sidereal Time
16:21:35
Azimuth
Unknown
Elevation
Unknown
Doppler factor
Unknown
Orbital elements
Apogee altitude
764.832 km
Perigee altitude
728.545 km
Semi-major axis
7,124.825 km
Eccentricity
0.00255
Inclination
99.1328°
RAAN
77.6155°
Arg. of periapsis
88.658°
True anomaly
271.4607°
Mean anomaly
271.7524°
Eccentric anomaly
271.60655°
Mean motion
3.60896 °/min
Orbital period
99.75 mins
BSTAR
0.0022256
Loading maneuver chart data...
Computing Atmospheric mass density...

Documentation

Showing up to 5 results
|